ARIANE 2 DEB, 27043

Orbit data source: Space-Track

ARIANE 2 DEB, 27043 is space debris in HEO originally from a launch on Fri, 27 Jan 1989 UTC launched from the French Guiana (FRGUI). Debris objects in space refer to the collection of defunct objects orbiting the Earth. Examples of debris include non-operational satellites, rocket bodies, and fragments generated from explosions, collisions, or faulty payload assembly.

Loading next visibility...
Identifier
27043, 1989-006Y
Orbit
HEO
Country
Flag of FRFR
Related business
Manufacturer
EADS/LV
Mission
Spacecraft
Bus & Motor
Unknown
Mass
Unknown
Launch date (UTC)
1989-01-27 (37 years ago)
Launch vehicle
Unknown
Launch site
French Guiana (FRGUI)
Object type
Payload
Rocket body
Debris
Shape & HBR
Unknown shape, 0.3 m
Radar Cross Section
Medium (>0.1 m² and <1 m²)

Expand to show TLE details & history
Last TLE update: 3 days ago

TLE from 3 days ago
0 ARIANE 2 DEB
1 27043U 89006Y   26059.48006169 -.00000048  00000-0 -19452-3 0  9993
2 27043   8.4424 318.8176 7122278 324.6318 266.5380  2.25090435202060
Epoch: 2026-02-28T11:31Z
TLE epoch observation values (Epoch: 2026-02-28T11:31:17.330Z)
Latitude
1.74577°
Longitude
155.95474°
Altitude
28,614.969 km
Speed
2.564 km/s
True Right ascension
08h 28m 18s
True Declination
1° 44' 37"
Sunlit
Object was in daylight at epoch
Visualization orbit readout
Latitude
Unknown
Longitude
Unknown
Altitude
Unknown
Speed
Unknown
Apparent Right ascension
Unknown
Apparent Declination
Unknown
Sunlit
N/A
Visualization observer readout
Local Sidereal Time
10:45:55
Azimuth
Unknown
Elevation
Unknown
Doppler factor
Unknown
Orbital elements
Apogee altitude
35,741.126 km
Perigee altitude
700.8 km
Semi-major axis
24,599.1 km
Eccentricity
0.71223
Inclination
8.4424°
RAAN
318.8176°
Arg. of periapsis
324.6318°
True anomaly
203.43162°
Mean anomaly
266.538°
Eccentric anomaly
233.66481°
Mean motion
0.56255 °/min
Orbital period
639.94 mins
BSTAR
-0.00019452
Loading maneuver chart data...
Computing Atmospheric mass density...
Loading historical data...
Loading historical data...
Loading historical data...
Loading historical data...
Loading historical data...
Loading historical data...
Loading historical data...

Documentation

Showing up to 5 results
|